Location: Sternwarte Hubelmatt
(47.0367°N, 8.3053°E)
Time: 03:55:34
(UTC+02:00)

UWE-3 - Pass Details

Date: 30 April 2024
Orbit: 569 x 652 km, 97.8° (Epoch: 23 May)

Event Time Altitude Azimuth Distance (km) Brightness Sun altitude
Rises 03:19:11 0° 23° (NNE) 2,891 ? -22.9°
Reaches altitude 10° 03:21:35 10° 34° (NE) 1,996 ? -22.7°
Maximum altitude 03:25:24 29° 96° (E) 1,149 ? -22.4°
Enters shadow 03:27:17 22° 136° (SE) 1,406 ? -22.2°
